Location: breval
(48.9474°N, 1.5319°E)
Time: 02:05:57
(UTC+00:00)

N. Korean satellite - Visible Passes

Search period start: 19 February 2018 00:00
Search period end: 01 March 2018 00:00
Orbit: 459 x 514 km, 97.2° (Epoch: 17 February)

Date Brightness Start Highest point End Pass type
(mag) Time Alt. Az. Time Alt. Az. Time Alt. Az.
19 Feb 8.8 06:06:54 10° NNE 06:10:11 31° E 06:13:30 10° SSE visible
19 Feb 8.9 18:20:34 10° SSW 18:23:35 28° W 18:26:39 10° NW visible
20 Feb 10.0 05:43:45 10° NE 05:46:18 18° E 05:48:52 10° SE visible
20 Feb 7.4 17:56:22 10° S 17:59:44 54° W 18:03:11 10° NNW visible
22 Feb 9.9 18:43:45 10° SW 18:46:00 16° W 18:48:16 10° NW visible
23 Feb 8.9 06:05:25 10° NNE 06:08:43 31° E 06:12:02 10° SSE visible
23 Feb 8.9 18:19:00 10° SSW 18:22:04 29° W 18:25:11 10° NNW visible
24 Feb 10.0 05:42:16 10° NE 05:44:49 18° E 05:47:22 10° SE visible
26 Feb 9.9 18:42:06 10° SW 18:44:27 17° W 18:46:49 10° NW visible
27 Feb 9.0 06:03:53 10° NNE 06:07:12 30° E 06:10:32 10° SSE visible
27 Feb 8.8 18:17:23 10° SSW 18:20:30 30° W 18:23:42 10° NNW visible
28 Feb 10.1 05:40:44 10° NE 05:43:17 17° E 05:45:49 10° SE visible
